GW1699 Weather Reports


time (UTC)temp
F
wind
direction
speed
knots
gust
knots
rain 1hr
in
rain 24hr
in
rain mn
in
humidity
%
barometer
mb
20260510093327 49 191 0.0 0.0 0.00 0.00 0.00 99 1011.1
20260510092725 49 193 0.0 0.0 0.00 0.00 0.00 99 1010.8
20260510092129 48 191 0.0 0.0 0.00 0.00 0.00 99 1010.8
20260510091537 48 190 0.0 0.0 0.00 0.00 0.00 99 1010.8
20260510090909 49 190 0.0 0.0 0.00 0.00 0.00 99 1010.8
20260510090341 49 191 0.0 0.0 0.00 0.00 0.00 99 1010.8
20260510085716 49 191 0.0 0.0 0.00 0.00 0.00 99 1010.8
20260510083948 49 191 0.0 0.0 0.00 0.00 0.00 99 1010.8
20260510083352 49 186 0.0 0.0 0.00 0.00 0.00 99 1010.4
20260510082744 49 191 0.0 0.0 0.00 0.00 0.00 99 1010.4
20260510082119 49 193 0.0 0.0 0.00 0.00 0.00 99 1010.4
20260510081549 49 193 0.0 0.0 0.00 0.00 0.00 99 1010.4
20260510080918 49 191 0.0 0.0 0.00 0.00 0.00 99 1010.4
20260510080327 49 191 0.0 0.0 0.00 0.00 0.00 99 1010.4
20260510075750 49 190 0.0 0.0 0.00 0.00 0.00 99 1010.4
20260510074542 49 191 0.0 0.0 0.00 0.00 0.00 99 1010.4
20260510073942 49 191 0.0 0.0 0.00 0.00 0.00 99 1010.1
20260510073347 49 189 0.0 0.0 0.00 0.00 0.00 99 1010.4
20260510072734 49 193 0.0 0.0 0.00 0.00 0.00 99 1010.4
20260510072126 49 191 0.0 0.0 0.00 0.00 0.00 99 1010.4
20260510071546 49 201 0.0 0.0 0.00 0.00 0.00 99 1010.4
20260510070925 49 201 0.0 0.0 0.00 0.00 0.00 99 1010.4
20260510070312 49 194 0.0 0.0 0.00 0.00 0.00 99 1010.4
20260510065734 49 193 0.0 0.0 0.00 0.00 0.00 99 1010.4
20260510065141 50 191 0.0 0.0 0.00 0.00 0.00 99 1010.4
20260510063923 50 191 0.0 0.0 0.00 0.00 0.00 99 1010.1
20260510063330 50 193 0.0 0.0 0.00 0.00 0.00 99 1010.4
20260510062709 50 194 0.0 0.0 0.00 0.00 0.00 99 1010.4
20260510062146 50 196 0.0 0.0 0.00 0.00 0.00 99 1010.4
20260510061534 50 199 0.0 0.0 0.00 0.00 0.00 99 1010.4
20260510060949 50 195 0.0 0.0 0.00 0.00 0.00 99 1010.4
20260510060341 50 207 0.0 0.0 0.00 0.00 0.00 99 1010.4
20260510055725 50 193 0.0 0.0 0.00 0.00 0.00 99 1010.4
20260510055118 50 193 0.0 0.0 0.00 0.00 0.00 99 1010.8
20260510054538 50 193 0.0 0.0 0.00 0.00 0.00 99 1010.4
20260510053314 50 195 0.0 0.0 0.00 0.00 0.00 99 1010.8
20260510052149 50 207 0.0 0.0 0.00 0.00 0.00 99 1010.8
20260510051548 50 207 0.0 0.0 0.00 0.00 0.00 99 1010.8
20260510050912 50 196 0.0 0.0 0.00 0.00 0.00 99 1010.8
20260510050332 50 197 0.0 0.0 0.00 0.00 0.00 99 1010.8
20260510045721 50 197 0.0 0.0 0.00 0.00 0.00 99 1010.8
20260510045110 50 197 0.0 0.0 0.00 0.00 0.00 99 1010.8
20260510043931 50 180 0.0 0.0 0.00 0.00 0.00 99 1010.8
20260510043338 50 195 0.0 0.0 0.00 0.00 0.00 99 1010.8
20260510042711 51 183 0.0 0.0 0.00 0.00 0.00 99 1010.8
20260510042145 51 199 0.0 0.0 0.00 0.00 0.00 99 1010.4
20260510041533 51 191 0.0 0.0 0.00 0.00 0.00 99 1010.8
20260510040924 51 197 0.0 0.0 0.00 0.00 0.00 99 1010.4
20260510040343 51 197 0.0 0.0 0.00 0.00 0.00 99 1010.4
20260510035747 51 197 0.0 0.0 0.00 0.00 0.00 99 1010.4
20260510035123 51 195 0.0 0.0 0.00 0.00 0.00 98 1010.4
20260510034541 51 197 0.0 0.0 0.00 0.00 0.00 98 1010.4
20260510033910 51 195 0.0 0.0 0.00 0.00 0.00 98 1010.4
20260510033316 51 198 0.0 0.0 0.00 0.00 0.00 98 1010.4
20260510032752 51 196 0.0 0.0 0.00 0.00 0.00 98 1010.1
20260510032147 51 198 0.0 0.0 0.00 0.00 0.00 98 1010.1
20260510031524 52 199 0.0 0.0 0.00 0.00 0.00 97 1010.1
20260510030919 52 195 0.0 0.0 0.00 0.00 0.00 97 1010.1
20260510030328 52 195 0.0 0.0 0.00 0.00 0.00 96 1010.1
20260510025732 52 190 0.0 0.0 0.00 0.00 0.00 96 1010.1
20260510025123 52 199 0.0 0.0 0.00 0.00 0.00 96 1010.1
20260510023940 53 199 0.0 0.0 0.00 0.00 0.00 95 1010.1
20260510022739 53 199 0.0 0.0 0.00 0.00 0.00 95 1009.8
20260510021510 53 199 0.0 0.0 0.00 0.00 0.00 94 1009.8
20260510020952 53 199 0.0 0.0 0.00 0.00 0.00 94 1009.8
20260510015740 54 199 0.0 0.0 0.00 0.00 0.00 93 1009.4
20260510015143 54 198 0.0 0.0 0.00 0.00 0.00 93 1009.4
20260510014511 54 190 0.0 0.0 0.00 0.00 0.00 92 1009.4
20260510013946 54 198 0.0 0.0 0.00 0.00 0.00 91 1009.4
20260510012725 55 196 0.0 0.0 0.00 0.00 0.00 90 1009.1
20260510012131 55 199 0.0 0.0 0.00 0.00 0.00 90 1009.1
20260510011556 55 196 0.0 0.0 0.00 0.00 0.00 89 1008.8
20260510010951 56 198 0.0 0.0 0.00 0.00 0.00 88 1008.8
20260510010348 56 199 0.0 0.0 0.00 0.00 0.00 88 1008.8
20260510005143 57 197 0.0 0.0 0.00 0.00 0.00 86 1008.8
20260510004550 57 197 0.0 0.0 0.00 0.00 0.00 85 1008.8
20260510003307 58 196 0.0 0.0 0.00 0.00 0.00 86 1008.4
20260510002716 59 208 0.0 0.0 0.00 0.00 0.00 85 1008.4
20260510001511 60 190 0.0 0.0 0.00 0.00 0.00 82 1008.1
20260510000943 60 191 0.0 0.0 0.00 0.00 0.00 82 1008.1
20260510000349 61 192 0.0 0.0 0.00 0.00 0.00 78 1007.7
20260509235710 61 196 0.0 0.0 0.00 0.00 0.00 78 1007.7
20260509235126 62 195 0.0 0.0 0.00 0.00 0.00 78 1008.1
20260509234543 62 188 0.9 0.9 0.00 0.00 0.00 78 1008.1
20260509233949 63 197 0.0 0.0 0.00 0.00 0.00 77 1008.1
20260509233339 63 191 0.9 0.9 0.00 0.00 0.00 75 1007.7
20260509232130 65 183 0.9 0.9 0.00 0.00 0.00 70 1007.7
20260509231509 68 182 0.9 0.9 0.00 0.00 0.00 68 1007.7
20260509230951 68 177 0.0 0.9 0.00 0.00 0.00 66 1007.7
20260509230332 68 202 0.0 0.0 0.00 0.00 0.00 66 1007.7
20260509225146 68 183 1.7 1.7 0.00 0.00 0.00 69 1007.7
20260509224535 67 217 0.0 0.9 0.00 0.00 0.00 71 1007.7
20260509223928 67 205 0.9 0.9 0.00 0.00 0.00 69 1007.7
20260509223343 67 197 0.9 0.9 0.00 0.00 0.00 68 1007.7
20260509222130 66 173 0.9 0.9 0.00 0.00 0.00 68 1008.1
20260509220918 67 197 0.9 0.9 0.00 0.00 0.00 70 1008.1
20260509220325 67 210 0.9 0.9 0.00 0.00 0.00 72 1008.1
20260509215723 68 139 1.7 1.7 0.00 0.00 0.00 63 1008.1
20260509215134 68 165 0.9 0.9 0.00 0.00 0.00 58 1008.1
20260509214520 69 63 0.9 0.9 0.00 0.00 0.00 60 1008.1
20260509213335 68 193 0.0 0.9 0.00 0.00 0.00 65 1008.1
20260509212739 68 197 0.0 0.0 0.00 0.00 0.00 69 1008.1
20260509212145 67 191 0.0 0.0 0.00 0.00 0.00 65 1008.1
20260509211542 67 151 0.9 0.9 0.00 0.00 0.00 66 1008.1
20260509210931 68 167 0.0 0.9 0.00 0.00 0.00 62 1008.1
20260509210318 68 191 0.0 0.0 0.00 0.00 0.00 61 1008.4
20260509205747 68 216 0.0 0.0 0.00 0.00 0.00 61 1008.1
20260509205134 68 9 4.3 5.2 0.00 0.00 0.00 58 1008.1
20260509204537 68 233 1.7 1.7 0.00 0.00 0.00 69 1008.1
20260509203950 67 203 0.0 0.9 0.00 0.00 0.00 63 1008.1
20260509203321 67 160 0.0 0.9 0.00 0.00 0.00 62 1008.1
20260509202753 68 313 1.7 1.7 0.00 0.00 0.00 61 1008.1
20260509202126 68 163 0.9 0.9 0.00 0.00 0.00 59 1008.1
20260509201532 67 201 0.0 0.0 0.00 0.00 0.00 61 1008.1
20260509200939 67 72 0.9 1.7 0.00 0.00 0.00 60 1007.7
20260509200309 67 220 0.0 0.9 0.00 0.00 0.00 60 1008.1
20260509195125 67 129 0.9 0.9 0.00 0.00 0.00 60 1008.1
20260509193915 67 200 0.0 0.0 0.00 0.00 0.00 62 1008.1
20260509193337 67 240 3.5 5.2 0.00 0.00 0.00 61 1008.1
20260509192748 67 237 1.7 2.6 0.00 0.00 0.00 60 1008.1
20260509191528 66 198 0.9 1.7 0.00 0.00 0.00 61 1008.4
20260509190313 67 198 1.7 3.5 0.00 0.00 0.00 62 1008.1
20260509185750 66 195 0.0 0.9 0.00 0.00 0.00 60 1008.1
20260509185114 67 190 0.0 0.9 0.00 0.00 0.00 60 1008.1
20260509184531 66 178 0.9 0.9 0.00 0.00 0.00 62 1008.1
20260509183936 66 24 0.9 1.7 0.00 0.00 0.00 60 1008.4
20260509183343 66 199 0.0 0.9 0.00 0.00 0.00 61 1008.1
20260509182727 66 164 0.0 0.9 0.00 0.00 0.00 64 1008.4
20260509182153 66 261 1.7 1.7 0.00 0.00 0.00 62 1008.4
20260509181515 66 275 1.7 1.7 0.00 0.00 0.00 61 1008.4
20260509180942 65 232 0.9 0.9 0.00 0.00 0.00 62 1008.4
20260509180315 65 188 0.9 0.9 0.00 0.00 0.00 61 1008.4
20260509175737 65 201 0.9 0.9 0.00 0.00 0.00 62 1008.4
20260509175152 65 228 1.7 1.7 0.00 0.00 0.00 61 1008.4
20260509174526 65 231 0.9 1.7 0.00 0.00 0.00 60 1008.4
20260509173310 65 326 0.9 1.7 0.00 0.00 0.00 61 1008.4
20260509172726 66 351 2.6 2.6 0.00 0.00 0.00 57 1008.4
20260509171510 65 175 0.0 0.0 0.00 0.00 0.00 59 1008.4
20260509170921 66 198 0.0 0.0 0.00 0.00 0.00 56 1008.8
20260509170323 66 173 0.9 0.9 0.00 0.00 0.00 60 1008.8
20260509165719 66 117 0.9 0.9 0.00 0.00 0.00 56 1008.8
20260509165132 65 104 2.6 3.5 0.00 0.00 0.00 57 1008.4
20260509164539 66 343 1.7 1.7 0.00 0.00 0.00 58 1008.8
20260509163934 65 83 1.7 3.5 0.00 0.00 0.00 58 1008.4
20260509162115 64 336 1.7 2.6 0.00 0.00 0.00 57 1008.8
20260509161540 64 134 0.9 0.9 0.00 0.00 0.00 58 1008.8
20260509160930 63 263 2.6 2.6 0.00 0.00 0.00 60 1008.8
20260509160345 63 204 0.9 1.7 0.00 0.00 0.00 60 1008.8
20260509155716 63 219 0.9 1.7 0.00 0.00 0.00 61 1008.8
20260509154540 62 209 0.9 0.9 0.00 0.00 0.00 65 1008.8
20260509153940 62 218 0.0 0.0 0.00 0.00 0.00 63 1008.8
20260509153324 61 199 0.0 0.0 0.00 0.00 0.00 67 1008.8
20260509152128 61 153 0.0 0.9 0.00 0.00 0.00 67 1008.8
20260509150915 61 167 0.0 0.9 0.00 0.00 0.00 70 1009.1
20260509150315 60 243 0.0 0.0 0.00 0.00 0.00 68 1009.1
20260509145740 60 98 0.9 0.9 0.00 0.00 0.00 69 1008.8
20260509145127 60 153 0.0 0.0 0.00 0.00 0.00 72 1009.1
20260509144508 60 213 0.9 0.9 0.00 0.00 0.00 70 1009.1
20260509143907 60 204 0.0 0.0 0.00 0.00 0.00 77 1009.4
20260509142747 60 182 0.0 0.9 0.00 0.00 0.00 70 1009.1
20260509141517 61 4 1.7 2.6 0.00 0.00 0.00 69 1008.8
20260509140924 61 190 0.0 0.0 0.00 0.00 0.00 68 1009.1
20260509140344 60 64 0.0 0.9 0.00 0.00 0.00 72 1008.8
20260509135710 60 314 0.9 1.7 0.00 0.00 0.00 71 1008.8
20260509135112 60 209 0.0 0.0 0.00 0.00 0.00 71 1008.8
20260509134545 60 124 1.7 1.7 0.00 0.00 0.00 73 1009.1
20260509133914 60 169 0.9 0.9 0.00 0.00 0.00 74 1008.8
20260509132743 58 185 0.0 0.0 0.00 0.00 0.00 79 1009.1
20260509132132 58 209 0.9 0.9 0.00 0.00 0.00 77 1009.1
20260509131511 57 199 0.0 0.0 0.00 0.00 0.00 80 1009.1
20260509130917 57 191 0.0 0.0 0.00 0.00 0.00 80 1009.4
20260509130311 56 198 0.0 0.0 0.00 0.00 0.00 85 1009.4
20260509125721 56 193 0.0 0.0 0.00 0.00 0.00 85 1009.4
20260509125123 55 195 0.0 0.0 0.00 0.00 0.00 88 1009.4
20260509123935 54 196 0.0 0.0 0.00 0.00 0.00 91 1009.4
20260509123351 54 200 0.0 0.0 0.00 0.00 0.00 91 1009.4
20260509122746 53 201 0.0 0.0 0.00 0.00 0.00 90 1009.4
20260509122142 53 198 0.0 0.0 0.00 0.00 0.00 91 1009.4
20260509121510 53 182 0.0 0.0 0.00 0.00 0.00 91 1009.4
20260509120914 52 193 0.0 0.0 0.00 0.00 0.00 91 1009.4
20260509120320 52 200 0.0 0.0 0.00 0.00 0.00 92 1009.4
20260509115739 51 197 0.0 0.0 0.00 0.00 0.00 93 1009.4
20260509115121 51 182 0.0 0.0 0.00 0.00 0.00 93 1009.1
20260509113926 51 195 0.0 0.0 0.00 0.00 0.00 93 1009.4
20260509113325 51 195 0.0 0.0 0.00 0.00 0.00 93 1009.1
20260509112131 50 180 0.0 0.0 0.00 0.00 0.00 94 1009.4
20260509110934 50 190 0.0 0.0 0.00 0.00 0.00 93 1009.1
20260509110313 50 190 0.0 0.0 0.00 0.00 0.00 93 1009.1
20260509104545 50 192 0.0 0.0 0.00 0.00 0.00 93 1008.8
20260509103940 50 190 0.0 0.0 0.00 0.00 0.00 93 1009.1
20260509103314 50 199 0.0 0.0 0.00 0.00 0.00 94 1009.1
20260509102735 50 195 0.0 0.0 0.00 0.00 0.00 93 1009.1
20260509102123 50 196 0.0 0.0 0.00 0.00 0.00 93 1009.1
20260509101514 50 195 0.0 0.0 0.00 0.00 0.00 93 1009.1
20260509100920 50 190 0.0 0.0 0.00 0.00 0.00 93 1008.8
20260509100325 50 193 0.0 0.0 0.00 0.00 0.00 92 1008.8
20260509095736 50 194 0.0 0.0 0.00 0.00 0.00 91 1009.1
20260509095147 50 190 0.0 0.0 0.00 0.00 0.00 90 1009.1
20260509094533 50 193 0.0 0.0 0.00 0.00 0.00 91 1009.1